Starlink 31291

operational
NORAD ID: 59096 Int'l Des: 2024-041 Owner: SPXS Country: US Constellation: starlink
LEOCIRCULAR

Über Starlink 31291

Beschreibung wird geladen...

Live-Position

3D-Globus wird geladen...

Nächste Überflüge

Höhenverlauf

Altitude vs Time

uPlot chart will show altitude changes over time

Zweizeiliger Elementsatz

1 59096U 24041Y 25304.03774420 .00000181 00000-0 16107-4 0 9990
2 59096 43.0021 322.8394 0000887 252.5330 107.5425 15.27578909 94443
Epoch: 31. Okt. 2025 • Age: 11 hours

Aktueller Status

Höhe 490.1 km
Geschwindigkeit 7.62 km/s
Subsatellitenpunkt -28.16°S, 69.95°E
Startdatum 29. Feb. 2024
Alter 1.6 years
Typ internet

Technische Details

Klassifizierung Payload
Masse 730.00 kg
Trockenmasse 700.00 kg
Gesamtmasse 730.00 kg
Länge 0.30 m
Durchmesser 4.10 m
Spannweite 29.00 m
Form Box + pan
Hersteller SPXS
Bus-Typ Starlink V2M
Phasenstatus In Orbit
Besitzer/Staat SPXS/US

Große Konstellationen

Loading constellations...